CEB143 RPVP-RPLL

Flight info

Callsign CEB143
Flight time N/A
Altitude 33000
Route DABOY1E DABOY W281 LEGED N884 LUBAN LUBAN1A
Aircraft A339/H-SADE1E2E3GHIJ3J5M1P2RWXY/LB2D1

Departure

Time 2026-04-20 12:42
Airport Puerto Princesa International Airport / PAF Antonio Bautista Air Base (RPVP)

Arrival

Time N/A
Airport Ninoy Aquino International Airport (RPLL)
Time Latitude Longitude Altitude Speed Heading
2026-04-20 12:13 9.74498 118.75063 84 ft 0 kts
2026-04-20 12:33 9.74490 118.75063 84 ft 2 kts
2026-04-20 12:34 9.74475 118.75063 84 ft 2 kts
2026-04-20 12:34 9.74461 118.75062 84 ft 0 kts
2026-04-20 12:34 9.74450 118.75062 84 ft 2 kts 353°
2026-04-20 12:34 9.74445 118.75063 84 ft 2 kts 344°
2026-04-20 12:35 9.74411 118.75098 84 ft 2 kts 279°
2026-04-20 12:35 9.74410 118.75106 84 ft 1 kts 271°
2026-04-20 12:36 9.74410 118.75108 84 ft 0 kts 271°
2026-04-20 12:38 9.74410 118.75106 84 ft 1 kts 272°
2026-04-20 12:39 9.74414 118.75024 84 ft 9 kts 272°
2026-04-20 12:39 9.74417 118.74944 84 ft 12 kts 272°
2026-04-20 12:39 9.74421 118.74855 84 ft 13 kts 272°
2026-04-20 12:40 9.74422 118.74766 84 ft 11 kts 264°
2026-04-20 12:40 9.74387 118.74714 84 ft 9 kts 200°
2026-04-20 12:40 9.74323 118.74707 84 ft 9 kts 181°
2026-04-20 12:40 9.74265 118.74729 84 ft 8 kts 121°
2026-04-20 12:41 9.74265 118.74760 84 ft 2 kts 89°
2026-04-20 12:41 9.74262 118.74785 84 ft 5 kts 99°
2026-04-20 12:41 9.74255 118.74833 84 ft 8 kts 96°
2026-04-20 12:41 9.74251 118.74895 84 ft 9 kts 92°
2026-04-20 12:42 9.74242 118.75103 84 ft 69 kts 93°
2026-04-20 12:42 9.74208 118.75886 84 ft 150 kts 92°
2026-04-20 12:42 9.74183 118.77052 640 ft 174 kts 90°
2026-04-20 12:42 9.74057 118.78265 1540 ft 178 kts 88°
2026-04-20 12:43 9.74361 118.79408 2290 ft 173 kts 54°
2026-04-20 12:43 9.75389 118.80074 2705 ft 190 kts 11°
2026-04-20 12:43 9.76769 118.80193 3122 ft 208 kts
2026-04-20 12:43 9.78262 118.80347 3558 ft 226 kts 10°
2026-04-20 12:44 9.79874 118.80643 4098 ft 241 kts 14°
2026-04-20 12:44 9.81521 118.81040 4856 ft 245 kts 16°
2026-04-20 12:44 9.83169 118.81488 5632 ft 248 kts 18°
2026-04-20 12:44 9.84824 118.81959 6419 ft 251 kts 19°
2026-04-20 12:45 9.86500 118.82449 7208 ft 253 kts 19°
2026-04-20 12:45 9.88215 118.82938 7948 ft 258 kts 15°
2026-04-20 12:45 9.89990 118.83205 8634 ft 264 kts
2026-04-20 12:45 9.91902 118.83224 9092 ft 280 kts
2026-04-20 12:46 9.93877 118.83166 9604 ft 291 kts 359°
2026-04-20 12:46 9.95930 118.83091 10321 ft 295 kts 360°
2026-04-20 12:46 9.98023 118.83018 10787 ft 308 kts 360°
2026-04-20 12:46 10.00232 118.82948 11164 ft 324 kts
2026-04-20 12:47 10.02529 118.82877 11793 ft 330 kts 360°
2026-04-20 12:47 10.04804 118.82806 12497 ft 332 kts 360°
2026-04-20 12:47 10.07132 118.82734 13213 ft 334 kts 360°
2026-04-20 12:47 10.09472 118.82663 13878 ft 337 kts 360°
2026-04-20 12:48 10.11820 118.82593 14482 ft 342 kts 360°
2026-04-20 12:48 10.14219 118.82523 15052 ft 348 kts 360°
2026-04-20 12:48 10.16681 118.82450 15619 ft 353 kts 359°
2026-04-20 12:48 10.19149 118.82374 16181 ft 358 kts 360°
2026-04-20 12:49 10.21663 118.82298 16749 ft 363 kts 359°
2026-04-20 12:49 10.24184 118.82221 17297 ft 367 kts 359°
2026-04-20 12:49 10.26787 118.82142 17875 ft 371 kts 359°
2026-04-20 12:49 10.29368 118.82065 18480 ft 374 kts 359°
2026-04-20 12:50 10.31971 118.81986 19053 ft 377 kts 359°
2026-04-20 12:50 10.34624 118.81905 19608 ft 381 kts 359°
2026-04-20 12:50 10.37266 118.81825 20139 ft 384 kts 359°
2026-04-20 12:50 10.39952 118.81756 20670 ft 387 kts
2026-04-20 12:51 10.42664 118.81831 21191 ft 390 kts
2026-04-20 12:51 10.45390 118.82011 21699 ft 393 kts
2026-04-20 12:51 10.48146 118.82206 22200 ft 395 kts
2026-04-20 12:51 10.50904 118.82404 22693 ft 399 kts
2026-04-20 12:52 10.53687 118.82604 23168 ft 402 kts
2026-04-20 12:52 10.56469 118.82803 23655 ft 405 kts
2026-04-20 12:52 10.59305 118.83003 24135 ft 409 kts
2026-04-20 12:52 10.62175 118.83207 24616 ft 412 kts
2026-04-20 12:53 10.65059 118.83411 25083 ft 416 kts
2026-04-20 12:53 10.67949 118.83614 25514 ft 420 kts
2026-04-20 12:53 10.70885 118.83822 25965 ft 423 kts
2026-04-20 12:53 10.73836 118.84030 26406 ft 426 kts
2026-04-20 12:54 10.76842 118.84242 26851 ft 429 kts
2026-04-20 12:54 10.79832 118.84452 27273 ft 433 kts
2026-04-20 12:54 10.82859 118.84666 27712 ft 435 kts
2026-04-20 12:54 10.85928 118.84882 28185 ft 437 kts
2026-04-20 12:55 10.88975 118.85098 28593 ft 441 kts
2026-04-20 12:55 10.92094 118.85318 28998 ft 444 kts
2026-04-20 12:55 10.95180 118.85535 29398 ft 447 kts
2026-04-20 12:55 10.98282 118.85754 29807 ft 449 kts
2026-04-20 12:56 11.01444 118.85977 30226 ft 451 kts
2026-04-20 12:56 11.04556 118.86197 30616 ft 454 kts
2026-04-20 12:56 11.07737 118.86422 31012 ft 456 kts
2026-04-20 12:56 11.10923 118.86646 31406 ft 458 kts
2026-04-20 12:57 11.14118 118.86872 31866 ft 458 kts
2026-04-20 12:57 11.17281 118.87096 32302 ft 459 kts
2026-04-20 12:57 11.20510 118.87323 32707 ft 461 kts
2026-04-20 12:57 11.23704 118.87548 32921 ft 463 kts
2026-04-20 12:58 11.26907 118.87774 32923 ft 463 kts
2026-04-20 12:58 11.33343 118.88228 32928 ft 463 kts
2026-04-20 12:59 11.39797 118.88682 32928 ft 462 kts
2026-04-20 12:59 11.46234 118.89136 32930 ft 463 kts
2026-04-20 13:00 11.52668 118.89589 32932 ft 463 kts
2026-04-20 13:00 11.59132 118.90044 32932 ft 463 kts
2026-04-20 13:01 11.65537 118.90496 32933 ft 463 kts
2026-04-20 13:01 11.68793 118.90726 32935 ft 463 kts